Regional Weather Roundup
Issued by NWS New Orleans/Baton Rouge, LA

Current Version | Previous Version | Text Only | Print | Product List | Glossary On
Versions: 1 2 3 4 5 6 7 8 9 10 11 12 13 14 15 16 17 18 19 20 21 22 23 24 25 26 27 28 29 30 31 32 33 34 35 36 37 38 39 40 41 42 43 44 45 46 47 48 49 50
008 ASUS44 KLIX 192008 RWRLIX NEW ORLEANS REGIONAL WEATHER ROUNDUP NATIONAL WEATHER SERVICE NEW ORLEANS LA 300 PM CDT MON APR 19 2021 NOTE: "FAIR" INDICATES FEW OR NO CLOUDS BELOW 12,000 FEET WITH NO SIGNIFICANT WEATHER AND/OR OBSTRUCTIONS TO VISIBILITY. SKY/WX - SKY CONDITION AND SIGNIFICANT WEATHER. TMP - AIR TEMPERATURE. DP - DEWPOINT TEMPERATURE. RH - RELATIVE HUMIDITY. PRES - PRESSURE. HI - HEAT INDEX. WCI - WIND CHILL INDEX. * THESE STATIONS ARE NOT NWS OR FAA STATIONS AND ARE NOT UNDER NWS QUALITY CONTROL. LAZ038-048-061-063-065>067-069-076-077-192100- SOUTHEAST LOUISIANA CITY SKY/WX TMP DP RH WIND PRES REMARKS N.O. INTL ARPT MOSUNNY 73 41 31 VRB7 30.00F N.O. DWNTWN HE FAIR 72 40 31 VRB6 30.00F N.O. LAKEFRONT MOSUNNY 74 42 31 W3 30.00F RESERVE* FAIR 69 43 38 NW7 30.00F SLIDELL SUNNY 73 43 33 NE9 29.98F BATON ROUGE SUNNY 72 44 36 VRB3 29.99F BOOTHVILLE* CLEAR 66 48 53 NE6 30.02S BELLE CHASSE* MOSUNNY 71 45 39 VRB7 29.99F BOGALUSA* FAIR 73 40 30 N5 29.99F NEW ROADS* FAIR 69 42 38 NW8 30.01F GONZALES* FAIR 72 45 38 E6 29.99F HAMMOND* SUNNY 70 43 37 CALM 29.99F HOUMA* SUNNY 70 43 37 NE7 30.01 $$ MSZ070-077-080>082-192100- SOUTHERN MISSISSIPPI CITY SKY/WX TMP DP RH WIND PRES REMARKS MCCOMB SUNNY 71 43 36 NW9 29.99F PICAYUNE* CLEAR 73 43 33 CALM 29.98F GULFPORT SUNNY 73 41 31 NE6 29.96F BILOXI PTSUNNY 73 46 38 E5 29.96F PASCAGOULA SUNNY 74 44 34 VRB6 29.97F STENNIS ARPT* MOSUNNY 72 43 35 N7G16 29.98F $$ COASTAL OBSERVATIONS LAKE AND NEARSHORE STATIONS STATION/POSITION TIME SKY/WX TEMP WIND PRES WAVE AIR SEA DIR/SP/G HT/PER (UTC) (F) (DEG/KT/KT) (MB) (FT/S) WAVELAND YACHT 1924 77 66 360/ 9/ 13 N/A GRAND ISLE 1930 68 N/A SOUTHWEST PASS 1924 67 64 60/ 16/ 18 1014.2 NEW CANAL 1924 66 67 340/ 4/ 5 1015.3 SHELL BEACH 1924 67 70 40/ 3/ 5 1016.1 OFFSHORE STATIONS STATION/POSITION TIME SKY/WX TEMP WIND PRES WAVE AIR SEA DIR/SP/G HT/PER (UTC) (F) (DEG/KT/KT) (MB) (FT/S) 64 S DAUPHIN ISL 1950 65 73 30/ 10/ 14 1015.7 4/ 6 LA OFFSHORE OIL 1946 63 70/ 14/ 19 1016.1 $$

USA.gov is the U.S. government's official web portal to all federal, state and local government web resources and services.